Climatologie pour Saint-Brevin les Pins
Jour • Résumé pour juillet 18, 2017 Système :  Métrique    Anglais   Mixte
« - 1 jour
+ 1 jour »
Jour Semaine Mois Année Personnalisé
  Maximum : Minimum : Moyenne :
Température sous abri : 33.1 °C 20.1 °C 25.5 °C
Point de rosée : 20.4 °C 15.1 °C 17.7 °C
Humidité : 95 % 35 % 64 %
Vitesse du vent : 25.7 km/h 0.0 km/h 8.8 km/h
Rafale : 33.8 km/h - -
Direction :- - SSE
Pression : 1013.8 hPa 1006.3 hPa -
Précipitations : 0.0 mm    
Historical Graphs
 
 
Tableau de données pour juillet 18, 2017
Heure Tempé Pt rosée Pression Vent Vitesse Rafale Humidité Taux pluie (/hr) Soleil
00:00 25.5 °C 17.7 °C 1013.8 hPa Calm   11.3 km/h 62 % 0.0 mm 0 W/m2
00:10 25.6 °C 17.7 °C 1013.4 hPa ENE 3.2 km/h 11.3 km/h 62 % 0.0 mm 0 W/m2
00:15 25.6 °C 17.5 °C 1013.4 hPa NE 6.4 km/h 11.3 km/h 61 % 0.0 mm 0 W/m2
00:20 25.6 °C 17.5 °C 1013.4 hPa NE 3.2 km/h 16.1 km/h 61 % 0.0 mm 0 W/m2
00:25 25.8 °C 17.5 °C 1013.4 hPa ENE 8.0 km/h 17.7 km/h 60 % 0.0 mm 0 W/m2
00:30 25.8 °C 17.5 °C 1013.4 hPa ENE 8.0 km/h 17.7 km/h 60 % 0.0 mm 0 W/m2
00:35 25.7 °C 17.3 °C 1013.4 hPa NE 11.3 km/h 12.9 km/h 60 % 0.0 mm 0 W/m2
00:40 25.6 °C 17.5 °C 1013.4 hPa ENE 8.0 km/h 14.5 km/h 61 % 0.0 mm 0 W/m2
00:45 25.3 °C 17.5 °C 1013.4 hPa NNE 3.2 km/h 14.5 km/h 62 % 0.0 mm 0 W/m2
00:50 25.0 °C 17.5 °C 1013.4 hPa Calm   11.3 km/h 63 % 0.0 mm 0 W/m2
00:55 24.8 °C 17.5 °C 1013.4 hPa NE 1.6 km/h 11.3 km/h 64 % 0.0 mm 0 W/m2
01:00 24.8 °C 17.6 °C 1013.4 hPa Calm   14.5 km/h 64 % 0.0 mm 0 W/m2
01:05 24.8 °C 17.3 °C 1013.4 hPa ENE 8.0 km/h 14.5 km/h 63 % 0.0 mm 0 W/m2
01:10 24.8 °C 17.3 °C 1013.4 hPa NNE 6.4 km/h 14.5 km/h 63 % 0.0 mm 0 W/m2
01:15 24.8 °C 17.3 °C 1013.4 hPa East 1.6 km/h 12.9 km/h 63 % 0.0 mm 0 W/m2
01:20 24.7 °C 17.4 °C 1013.1 hPa East 4.8 km/h 14.5 km/h 64 % 0.0 mm 0 W/m2
01:25 24.6 °C 17.3 °C 1013.1 hPa East 11.3 km/h 14.5 km/h 64 % 0.0 mm 0 W/m2
01:30 24.6 °C 17.3 °C 1013.1 hPa ENE 11.3 km/h 12.9 km/h 64 % 0.0 mm 0 W/m2
01:40 24.5 °C 17.2 °C 1013.1 hPa Calm   14.5 km/h 64 % 0.0 mm 0 W/m2
01:45 24.4 °C 17.4 °C 1013.1 hPa ENE 4.8 km/h 14.5 km/h 65 % 0.0 mm 0 W/m2
01:50 24.4 °C 17.4 °C 1012.8 hPa ENE 3.2 km/h 12.9 km/h 65 % 0.0 mm 0 W/m2
01:55 24.3 °C 17.3 °C 1012.8 hPa ENE 6.4 km/h 11.3 km/h 65 % 0.0 mm 0 W/m2
02:00 24.2 °C 17.2 °C 1012.8 hPa ENE 8.0 km/h 12.9 km/h 65 % 0.0 mm 0 W/m2
02:05 24.0 °C 17.3 °C 1012.8 hPa ENE 6.4 km/h 17.7 km/h 66 % 0.0 mm 0 W/m2
02:10 23.8 °C 17.1 °C 1012.8 hPa ENE 3.2 km/h 17.7 km/h 66 % 0.0 mm 0 W/m2
02:15 23.8 °C 17.0 °C 1012.8 hPa NNE 8.0 km/h 14.5 km/h 66 % 0.0 mm 0 W/m2
02:20 23.6 °C 17.3 °C 1012.8 hPa Calm   14.5 km/h 68 % 0.0 mm 0 W/m2
02:30 23.4 °C 17.4 °C 1012.8 hPa Calm   12.9 km/h 69 % 0.0 mm 0 W/m2
02:35 23.4 °C 17.4 °C 1012.8 hPa Calm   8.0 km/h 69 % 0.0 mm 0 W/m2
02:40 23.3 °C 17.3 °C 1012.8 hPa Calm   11.3 km/h 69 % 0.0 mm 0 W/m2
02:45 23.0 °C 17.2 °C 1012.8 hPa NE 4.8 km/h 11.3 km/h 70 % 0.0 mm 0 W/m2
02:50 23.1 °C 17.3 °C 1012.8 hPa NE 3.2 km/h 8.0 km/h 70 % 0.0 mm 0 W/m2
02:55 22.8 °C 17.3 °C 1012.8 hPa Calm   8.0 km/h 71 % 0.0 mm 0 W/m2
03:00 22.6 °C 17.3 °C 1013.1 hPa North 4.8 km/h 8.0 km/h 72 % 0.0 mm 0 W/m2
03:05 22.6 °C 17.5 °C 1013.1 hPa NNE 4.8 km/h 12.9 km/h 73 % 0.0 mm 0 W/m2
03:10 22.9 °C 17.6 °C 1012.8 hPa NE 3.2 km/h 12.9 km/h 72 % 0.0 mm 0 W/m2
03:15 23.1 °C 17.5 °C 1012.8 hPa NE 6.4 km/h 11.3 km/h 71 % 0.0 mm 0 W/m2
03:20 23.1 °C 17.5 °C 1013.1 hPa North 4.8 km/h 8.0 km/h 71 % 0.0 mm 0 W/m2
03:25 23.0 °C 17.5 °C 1012.8 hPa Calm   11.3 km/h 71 % 0.0 mm 0 W/m2
03:30 22.9 °C 17.4 °C 1012.8 hPa NNE 11.3 km/h 11.3 km/h 71 % 0.0 mm 0 W/m2
03:35 23.1 °C 17.3 °C 1012.4 hPa East 8.0 km/h 11.3 km/h 70 % 0.0 mm 0 W/m2
03:40 23.2 °C 17.4 °C 1012.4 hPa East 11.3 km/h 17.7 km/h 70 % 0.0 mm 0 W/m2
03:45 23.2 °C 17.2 °C 1012.1 hPa East 6.4 km/h 17.7 km/h 69 % 0.0 mm 0 W/m2
03:50 23.3 °C 17.3 °C 1012.1 hPa ENE 17.7 km/h 17.7 km/h 69 % 0.0 mm 0 W/m2
03:55 23.3 °C 17.3 °C 1012.1 hPa ENE 12.9 km/h 17.7 km/h 69 % 0.0 mm 0 W/m2
04:00 23.3 °C 17.0 °C 1012.1 hPa ENE 6.4 km/h 17.7 km/h 68 % 0.0 mm 0 W/m2
04:05 23.3 °C 17.0 °C 1012.1 hPa ENE 11.3 km/h 17.7 km/h 68 % 0.0 mm 0 W/m2
04:10 23.2 °C 17.0 °C 1011.7 hPa East 8.0 km/h 17.7 km/h 68 % 0.0 mm 0 W/m2
04:15 23.3 °C 17.0 °C 1011.7 hPa ESE 4.8 km/h 14.5 km/h 68 % 0.0 mm 0 W/m2
04:20 23.3 °C 16.8 °C 1011.7 hPa East 4.8 km/h 17.7 km/h 67 % 0.0 mm 0 W/m2
04:25 23.3 °C 17.0 °C 1011.7 hPa ESE 12.9 km/h 17.7 km/h 68 % 0.0 mm 0 W/m2
04:30 23.3 °C 16.9 °C 1011.7 hPa ENE 16.1 km/h 20.9 km/h 67 % 0.0 mm 0 W/m2
04:35 23.3 °C 16.9 °C 1011.7 hPa ENE 3.2 km/h 20.9 km/h 67 % 0.0 mm 0 W/m2
04:40 23.4 °C 16.9 °C 1011.7 hPa East 4.8 km/h 16.1 km/h 67 % 0.0 mm 0 W/m2
04:45 23.4 °C 17.0 °C 1011.4 hPa ESE 12.9 km/h 16.1 km/h 67 % 0.0 mm 0 W/m2
04:50 23.4 °C 16.7 °C 1011.4 hPa ESE 8.0 km/h 17.7 km/h 66 % 0.0 mm 0 W/m2
04:55 23.4 °C 16.7 °C 1011.4 hPa East 4.8 km/h 17.7 km/h 66 % 0.0 mm 0 W/m2
05:00 23.3 °C 16.8 °C 1011.4 hPa East 8.0 km/h 17.7 km/h 67 % 0.0 mm 0 W/m2
05:05 23.2 °C 16.7 °C 1011.4 hPa East 14.5 km/h 17.7 km/h 67 % 0.0 mm 0 W/m2
05:10 23.2 °C 16.7 °C 1011.1 hPa East 4.8 km/h 16.1 km/h 67 % 0.0 mm 0 W/m2
05:15 23.2 °C 16.7 °C 1011.1 hPa ESE 4.8 km/h 16.1 km/h 67 % 0.0 mm 0 W/m2
05:20 23.2 °C 16.8 °C 1011.1 hPa ESE 12.9 km/h 20.9 km/h 67 % 0.0 mm 0 W/m2
05:25 23.3 °C 16.6 °C 1011.1 hPa ESE 12.9 km/h 20.9 km/h 66 % 0.0 mm 0 W/m2
05:30 23.2 °C 16.5 °C 1010.7 hPa ESE 14.5 km/h 20.9 km/h 66 % 0.0 mm 0 W/m2
05:35 23.2 °C 16.5 °C 1010.7 hPa East 14.5 km/h 22.5 km/h 66 % 0.0 mm 0 W/m2
05:40 23.2 °C 16.7 °C 1010.7 hPa SE 11.3 km/h 22.5 km/h 67 % 0.0 mm 0 W/m2
05:45 23.1 °C 16.6 °C 1010.7 hPa ESE 6.4 km/h 17.7 km/h 67 % 0.0 mm 0 W/m2
05:50 23.1 °C 16.6 °C 1010.7 hPa ESE 8.0 km/h 22.5 km/h 67 % 0.0 mm 0 W/m2
05:55 23.0 °C 16.5 °C 1010.7 hPa East 11.3 km/h 22.5 km/h 67 % 0.0 mm 0 W/m2
06:00 22.9 °C 16.5 °C 1010.7 hPa East 8.0 km/h 17.7 km/h 67 % 0.0 mm 0 W/m2
06:05 22.8 °C 16.6 °C 1010.7 hPa SE 4.8 km/h 16.1 km/h 68 % 0.0 mm 0 W/m2
06:10 22.7 °C 16.5 °C 1010.7 hPa ESE 1.6 km/h 20.9 km/h 68 % 0.0 mm 0 W/m2
06:15 22.7 °C 16.5 °C 1010.7 hPa East 8.0 km/h 20.9 km/h 68 % 0.0 mm 0 W/m2
06:20 22.6 °C 16.6 °C 1010.7 hPa ESE 11.3 km/h 16.1 km/h 69 % 0.0 mm 0 W/m2
06:25 22.6 °C 16.6 °C 1010.7 hPa SE 6.4 km/h 16.1 km/h 69 % 0.0 mm 0 W/m2
06:30 22.5 °C 16.5 °C 1010.7 hPa East 4.8 km/h 16.1 km/h 69 % 0.0 mm 0 W/m2
06:35 22.5 °C 16.5 °C 1010.7 hPa ESE 6.4 km/h 16.1 km/h 69 % 0.0 mm 0 W/m2
06:40 22.5 °C 16.5 °C 1010.7 hPa ESE 14.5 km/h 19.3 km/h 69 % 0.0 mm 0 W/m2
06:45 22.6 °C 16.6 °C 1010.7 hPa East 9.7 km/h 19.3 km/h 69 % 0.0 mm 5 W/m2
06:50 22.5 °C 16.5 °C 1010.7 hPa SE 8.0 km/h 16.1 km/h 69 % 0.0 mm 7 W/m2
07:00 22.4 °C 16.7 °C 1010.4 hPa SE 4.8 km/h 16.1 km/h 70 % 0.0 mm 14 W/m2
07:05 22.4 °C 16.6 °C 1010.7 hPa ESE 6.4 km/h 12.9 km/h 70 % 0.0 mm 16 W/m2
07:10 22.4 °C 16.7 °C 1010.7 hPa ESE 8.0 km/h 14.5 km/h 70 % 0.0 mm 18 W/m2
07:15 22.4 °C 16.7 °C 1010.4 hPa ESE 8.0 km/h 14.5 km/h 70 % 0.0 mm 21 W/m2
07:20 22.3 °C 16.6 °C 1010.4 hPa ESE 8.0 km/h 14.5 km/h 70 % 0.0 mm 25 W/m2
07:25 22.4 °C 16.6 °C 1010.7 hPa SE 6.4 km/h 12.9 km/h 70 % 0.0 mm 26 W/m2
07:30 22.4 °C 16.9 °C 1010.7 hPa ESE 3.2 km/h 12.9 km/h 71 % 0.0 mm 30 W/m2
07:35 22.3 °C 16.8 °C 1010.4 hPa East 11.3 km/h 11.3 km/h 71 % 0.0 mm 35 W/m2
07:40 22.4 °C 16.9 °C 1010.4 hPa ENE 4.8 km/h 12.9 km/h 71 % 0.0 mm 39 W/m2
07:45 22.5 °C 17.0 °C 1010.4 hPa East 11.3 km/h 12.9 km/h 71 % 0.0 mm 40 W/m2
07:50 22.6 °C 16.9 °C 1010.4 hPa ENE 1.6 km/h 14.5 km/h 70 % 0.0 mm 44 W/m2
07:55 22.8 °C 17.0 °C 1010.4 hPa ENE 3.2 km/h 14.5 km/h 70 % 0.0 mm 47 W/m2
08:00 22.9 °C 17.1 °C 1010.4 hPa ESE 3.2 km/h 11.3 km/h 70 % 0.0 mm 51 W/m2
08:05 23.0 °C 17.0 °C 1010.4 hPa ENE 6.4 km/h 11.3 km/h 69 % 0.0 mm 54 W/m2
08:10 23.2 °C 17.2 °C 1010.4 hPa East 9.7 km/h 14.5 km/h 69 % 0.0 mm 167 W/m2
08:15 23.3 °C 17.1 °C 1010.4 hPa East 9.7 km/h 14.5 km/h 68 % 0.0 mm 193 W/m2
08:20 23.5 °C 17.3 °C 1010.0 hPa ESE 14.5 km/h 20.9 km/h 68 % 0.0 mm 209 W/m2
08:25 23.7 °C 17.2 °C 1010.0 hPa ESE 8.0 km/h 20.9 km/h 67 % 0.0 mm 227 W/m2
08:30 23.9 °C 17.2 °C 1010.0 hPa East 6.4 km/h 20.9 km/h 66 % 0.0 mm 243 W/m2
08:35 24.2 °C 17.4 °C 1010.0 hPa ESE 9.7 km/h 19.3 km/h 66 % 0.0 mm 257 W/m2
08:40 24.3 °C 17.1 °C 1010.0 hPa SE 4.8 km/h 24.1 km/h 64 % 0.0 mm 269 W/m2
08:45 24.6 °C 17.3 °C 1010.0 hPa ESE 11.3 km/h 24.1 km/h 64 % 0.0 mm 265 W/m2
08:50 24.7 °C 17.2 °C 1010.0 hPa SE 14.5 km/h 24.1 km/h 63 % 0.0 mm 179 W/m2
08:55 24.8 °C 17.3 °C 1010.0 hPa East 12.9 km/h 25.7 km/h 63 % 0.0 mm 260 W/m2
09:00 25.0 °C 17.2 °C 1009.7 hPa ESE 19.3 km/h 25.7 km/h 62 % 0.0 mm 297 W/m2
09:05 25.2 °C 17.2 °C 1009.7 hPa ESE 4.8 km/h 24.1 km/h 61 % 0.0 mm 327 W/m2
09:10 25.4 °C 17.1 °C 1009.7 hPa SSE 14.5 km/h 22.5 km/h 60 % 0.0 mm 315 W/m2
09:15 25.6 °C 17.0 °C 1009.7 hPa ESE 12.9 km/h 22.5 km/h 59 % 0.0 mm 308 W/m2
09:20 25.8 °C 16.9 °C 1009.7 hPa SE 11.3 km/h 24.1 km/h 58 % 0.0 mm 373 W/m2
09:25 26.2 °C 17.0 °C 1009.7 hPa ESE 17.7 km/h 24.1 km/h 57 % 0.0 mm 385 W/m2
09:30 26.4 °C 17.2 °C 1009.7 hPa ESE 11.3 km/h 24.1 km/h 57 % 0.0 mm 397 W/m2
09:35 26.7 °C 16.9 °C 1009.7 hPa ESE 8.0 km/h 24.1 km/h 55 % 0.0 mm 429 W/m2
09:40 27.0 °C 16.9 °C 1009.4 hPa SSE 24.1 km/h 24.1 km/h 54 % 0.0 mm 450 W/m2
09:45 27.3 °C 16.6 °C 1009.7 hPa SE 11.3 km/h 24.1 km/h 52 % 0.0 mm 473 W/m2
09:50 27.6 °C 15.9 °C 1009.7 hPa SE 16.1 km/h 25.7 km/h 49 % 0.0 mm 501 W/m2
09:55 27.7 °C 16.0 °C 1009.4 hPa ESE 16.1 km/h 27.4 km/h 49 % 0.0 mm 501 W/m2
10:00 27.8 °C 16.4 °C 1009.4 hPa SE 17.7 km/h 27.4 km/h 50 % 0.0 mm 508 W/m2
10:05 27.9 °C 16.2 °C 1009.4 hPa ESE 14.5 km/h 22.5 km/h 49 % 0.0 mm 322 W/m2
10:10 28.1 °C 16.0 °C 1009.4 hPa East 20.9 km/h 24.1 km/h 48 % 0.0 mm 543 W/m2
10:15 28.0 °C 16.0 °C 1009.4 hPa SE 14.5 km/h 24.1 km/h 48 % 0.0 mm 218 W/m2
10:20 28.2 °C 16.2 °C 1009.0 hPa ENE 11.3 km/h 24.1 km/h 48 % 0.0 mm 396 W/m2
10:25 28.5 °C 16.1 °C 1009.0 hPa ESE 3.2 km/h 33.8 km/h 47 % 0.0 mm 585 W/m2
10:30 29.2 °C 16.1 °C 1009.0 hPa SE 11.3 km/h 33.8 km/h 45 % 0.0 mm 587 W/m2
10:35 29.4 °C 16.2 °C 1009.0 hPa East 20.9 km/h 22.5 km/h 45 % 0.0 mm 594 W/m2
10:40 29.5 °C 16.0 °C 1009.0 hPa ESE 8.0 km/h 24.1 km/h 44 % 0.0 mm 603 W/m2
10:45 29.9 °C 16.0 °C 1009.0 hPa East 17.7 km/h 24.1 km/h 43 % 0.0 mm 601 W/m2
10:50 29.8 °C 15.9 °C 1009.0 hPa SE 16.1 km/h 25.7 km/h 43 % 0.0 mm 592 W/m2
10:55 30.1 °C 16.1 °C 1009.0 hPa SE 11.3 km/h 25.7 km/h 43 % 0.0 mm 575 W/m2
11:00 30.2 °C 15.5 °C 1009.0 hPa SSE 9.7 km/h 24.1 km/h 41 % 0.0 mm 666 W/m2
11:05 30.5 °C 15.4 °C 1008.7 hPa ESE 11.3 km/h 25.7 km/h 40 % 0.0 mm 650 W/m2
11:10 31.1 °C 15.9 °C 1009.0 hPa SE 17.7 km/h 25.7 km/h 40 % 0.0 mm 719 W/m2
11:15 31.4 °C 16.2 °C 1009.0 hPa SE 11.3 km/h 22.5 km/h 40 % 0.0 mm 668 W/m2
11:20 31.5 °C 15.5 °C 1009.0 hPa SSW 9.7 km/h 22.5 km/h 38 % 0.0 mm 694 W/m2
11:25 31.6 °C 15.9 °C 1009.4 hPa SE 12.9 km/h 19.3 km/h 39 % 0.0 mm 522 W/m2
11:30 31.4 °C 15.4 °C 1009.4 hPa ESE 11.3 km/h 19.3 km/h 38 % 0.0 mm 355 W/m2
11:40 30.7 °C 15.1 °C 1009.0 hPa South 8.0 km/h 20.9 km/h 39 % 0.0 mm 367 W/m2
11:45 31.1 °C 15.1 °C 1009.0 hPa SSE 11.3 km/h 20.9 km/h 38 % 0.0 mm 424 W/m2
11:50 31.6 °C 15.1 °C 1008.7 hPa East 8.0 km/h 14.5 km/h 37 % 0.0 mm 812 W/m2
12:00 31.7 °C 15.2 °C 1008.7 hPa ESE 6.4 km/h 20.9 km/h 37 % 0.0 mm 455 W/m2
12:05 31.8 °C 15.3 °C 1008.7 hPa East 8.0 km/h 20.9 km/h 37 % 0.0 mm 415 W/m2
12:10 32.1 °C 15.2 °C 1008.7 hPa SSW 12.9 km/h 22.5 km/h 36 % 0.0 mm 654 W/m2
12:15 32.6 °C 15.5 °C 1008.7 hPa SE 8.0 km/h 22.5 km/h 36 % 0.0 mm 701 W/m2
12:20 32.9 °C 15.5 °C 1008.7 hPa ENE 12.9 km/h 27.4 km/h 35 % 0.0 mm 700 W/m2
12:25 32.4 °C 15.8 °C 1008.7 hPa SE 9.7 km/h 27.4 km/h 37 % 0.0 mm 369 W/m2
12:30 32.2 °C 15.6 °C 1008.7 hPa SSE 8.0 km/h 20.9 km/h 37 % 0.0 mm 406 W/m2
12:35 32.2 °C 15.2 °C 1009.0 hPa South 11.3 km/h 17.7 km/h 36 % 0.0 mm 424 W/m2
12:40 31.9 °C 15.4 °C 1009.0 hPa East 6.4 km/h 17.7 km/h 37 % 0.0 mm 417 W/m2
12:45 32.2 °C 15.2 °C 1009.0 hPa SE 11.3 km/h 20.9 km/h 36 % 0.0 mm 524 W/m2
12:50 33.1 °C 15.5 °C 1008.7 hPa SE 8.0 km/h 20.9 km/h 35 % 0.0 mm 754 W/m2
12:55 31.4 °C 17.7 °C 1009.0 hPa NNW 9.7 km/h 24.1 km/h 44 % 0.0 mm 775 W/m2
13:00 28.9 °C 17.7 °C 1009.0 hPa WNW 9.7 km/h 24.1 km/h 51 % 0.0 mm 798 W/m2
13:05 27.9 °C 17.8 °C 1009.0 hPa WSW 19.3 km/h 24.1 km/h 54 % 0.0 mm 773 W/m2
13:10 28.3 °C 17.5 °C 1009.0 hPa WSW 12.9 km/h 24.1 km/h 52 % 0.0 mm 842 W/m2
13:15 28.8 °C 17.6 °C 1009.0 hPa WSW 11.3 km/h 19.3 km/h 51 % 0.0 mm 812 W/m2
13:20 27.9 °C 17.2 °C 1009.0 hPa West 9.7 km/h 27.4 km/h 52 % 0.0 mm 698 W/m2
13:25 27.4 °C 17.5 °C 1009.0 hPa SW 19.3 km/h 27.4 km/h 55 % 0.0 mm 738 W/m2
13:30 27.4 °C 17.0 °C 1009.0 hPa WSW 4.8 km/h 24.1 km/h 53 % 0.0 mm 735 W/m2
13:35 27.9 °C 17.5 °C 1008.7 hPa WSW 6.4 km/h 22.5 km/h 53 % 0.0 mm 758 W/m2
13:40 28.1 °C 17.0 °C 1008.7 hPa SW 6.4 km/h 20.9 km/h 51 % 0.0 mm 731 W/m2
13:45 28.4 °C 17.0 °C 1008.7 hPa SW 12.9 km/h 19.3 km/h 50 % 0.0 mm 851 W/m2
13:50 28.7 °C 16.6 °C 1008.7 hPa WSW 17.7 km/h 20.9 km/h 48 % 0.0 mm 737 W/m2
13:55 28.8 °C 16.4 °C 1008.7 hPa WNW 6.4 km/h 20.9 km/h 47 % 0.0 mm 842 W/m2
14:00 29.1 °C 17.0 °C 1008.7 hPa WSW 14.5 km/h 19.3 km/h 48 % 0.0 mm 838 W/m2
14:05 28.8 °C 16.7 °C 1008.7 hPa WSW 14.5 km/h 20.9 km/h 48 % 0.0 mm 854 W/m2
14:10 29.1 °C 16.6 °C 1008.7 hPa West 11.3 km/h 20.9 km/h 47 % 0.0 mm 912 W/m2
14:15 28.6 °C 16.1 °C 1008.4 hPa WNW 12.9 km/h 20.9 km/h 47 % 0.0 mm 814 W/m2
14:20 28.4 °C 16.6 °C 1008.4 hPa West 4.8 km/h 19.3 km/h 49 % 0.0 mm 851 W/m2
14:25 28.5 °C 16.4 °C 1008.0 hPa WNW 1.6 km/h 19.3 km/h 48 % 0.0 mm 868 W/m2
14:30 28.6 °C 17.2 °C 1008.0 hPa West 9.7 km/h 17.7 km/h 50 % 0.0 mm 860 W/m2
14:35 28.4 °C 16.4 °C 1008.0 hPa WNW 6.4 km/h 22.5 km/h 48 % 0.0 mm 844 W/m2
14:40 28.3 °C 17.2 °C 1008.0 hPa WSW 12.9 km/h 22.5 km/h 51 % 0.0 mm 835 W/m2
14:45 28.5 °C 17.1 °C 1007.7 hPa WNW 12.9 km/h 17.7 km/h 50 % 0.0 mm 826 W/m2
14:50 28.4 °C 17.0 °C 1007.7 hPa West 4.8 km/h 17.7 km/h 50 % 0.0 mm 807 W/m2
14:55 28.7 °C 17.2 °C 1007.7 hPa WNW 4.8 km/h 12.9 km/h 50 % 0.0 mm 798 W/m2
15:00 29.3 °C 17.5 °C 1007.7 hPa West 4.8 km/h 12.9 km/h 49 % 0.0 mm 793 W/m2
15:05 28.7 °C 16.9 °C 1007.7 hPa WSW 4.8 km/h 12.9 km/h 49 % 0.0 mm 795 W/m2
15:10 28.9 °C 17.5 °C 1007.7 hPa SW 6.4 km/h 14.5 km/h 50 % 0.0 mm 796 W/m2
15:15 28.8 °C 17.4 °C 1007.3 hPa WNW 12.9 km/h 16.1 km/h 50 % 0.0 mm 791 W/m2
15:20 28.9 °C 17.2 °C 1007.3 hPa WSW 6.4 km/h 16.1 km/h 49 % 0.0 mm 788 W/m2
15:25 29.5 °C 17.7 °C 1007.3 hPa WNW 8.0 km/h 14.5 km/h 49 % 0.0 mm 782 W/m2
15:30 29.4 °C 17.6 °C 1007.3 hPa West 6.4 km/h 14.5 km/h 49 % 0.0 mm 780 W/m2
15:35 29.7 °C 17.8 °C 1007.3 hPa West 8.0 km/h 14.5 km/h 49 % 0.0 mm 773 W/m2
15:45 29.7 °C 17.9 °C 1007.3 hPa SW 6.4 km/h 12.9 km/h 49 % 0.0 mm 758 W/m2
15:50 30.1 °C 17.8 °C 1007.3 hPa WSW 6.4 km/h 12.9 km/h 48 % 0.0 mm 749 W/m2
15:55 30.1 °C 18.2 °C 1007.3 hPa West 3.2 km/h 12.9 km/h 49 % 0.0 mm 758 W/m2
16:00 30.3 °C 18.0 °C 1007.0 hPa WSW 8.0 km/h 12.9 km/h 48 % 0.0 mm 751 W/m2
16:05 30.0 °C 18.4 °C 1007.3 hPa SW 9.7 km/h 20.9 km/h 50 % 0.0 mm 742 W/m2
16:10 29.9 °C 18.1 °C 1007.3 hPa SW 9.7 km/h 24.1 km/h 49 % 0.0 mm 733 W/m2
16:15 30.2 °C 18.3 °C 1007.0 hPa SSW 8.0 km/h 24.1 km/h 49 % 0.0 mm 729 W/m2
16:20 30.3 °C 18.4 °C 1007.3 hPa SSW 12.9 km/h 24.1 km/h 49 % 0.0 mm 717 W/m2
16:25 30.1 °C 18.5 °C 1007.0 hPa SW 3.2 km/h 22.5 km/h 50 % 0.0 mm 707 W/m2
16:30 30.1 °C 18.5 °C 1007.0 hPa West 4.8 km/h 22.5 km/h 50 % 0.0 mm 696 W/m2
16:40 30.3 °C 18.7 °C 1007.0 hPa SSW 6.4 km/h 25.7 km/h 50 % 0.0 mm 671 W/m2
16:45 29.7 °C 18.5 °C 1007.0 hPa SW 4.8 km/h 30.6 km/h 51 % 0.0 mm 671 W/m2
16:50 29.3 °C 18.7 °C 1007.0 hPa South 12.9 km/h 30.6 km/h 53 % 0.0 mm 663 W/m2
16:55 29.4 °C 19.5 °C 1007.0 hPa South 6.4 km/h 29.0 km/h 55 % 0.0 mm 654 W/m2
17:00 29.4 °C 19.1 °C 1007.0 hPa West 9.7 km/h 27.4 km/h 54 % 0.0 mm 640 W/m2
17:05 29.2 °C 19.2 °C 1006.7 hPa SSE 6.4 km/h 30.6 km/h 55 % 0.0 mm 628 W/m2
17:10 29.1 °C 19.4 °C 1006.7 hPa SSW 11.3 km/h 30.6 km/h 56 % 0.0 mm 624 W/m2
17:15 29.1 °C 19.4 °C 1006.7 hPa South 17.7 km/h 27.4 km/h 56 % 0.0 mm 619 W/m2
17:20 28.8 °C 19.7 °C 1006.7 hPa SSW 11.3 km/h 27.4 km/h 58 % 0.0 mm 608 W/m2
17:25 28.3 °C 19.3 °C 1006.7 hPa WSW 12.9 km/h 29.0 km/h 58 % 0.0 mm 473 W/m2
17:30 28.4 °C 19.4 °C 1006.7 hPa SSW 9.7 km/h 29.0 km/h 58 % 0.0 mm 585 W/m2
17:35 28.4 °C 19.4 °C 1006.7 hPa West 9.7 km/h 27.4 km/h 58 % 0.0 mm 571 W/m2
17:40 28.1 °C 19.6 °C 1006.7 hPa SSE 14.5 km/h 32.2 km/h 60 % 0.0 mm 561 W/m2
17:45 27.9 °C 19.7 °C 1006.7 hPa SSW 14.5 km/h 32.2 km/h 61 % 0.0 mm 550 W/m2
17:50 28.2 °C 19.9 °C 1006.7 hPa SSW 17.7 km/h 30.6 km/h 61 % 0.0 mm 540 W/m2
17:55 27.9 °C 19.7 °C 1006.7 hPa SSW 9.7 km/h 29.0 km/h 61 % 0.0 mm 529 W/m2
18:00 27.7 °C 20.0 °C 1006.7 hPa WSW 6.4 km/h 29.0 km/h 63 % 0.0 mm 513 W/m2
18:05 27.4 °C 20.0 °C 1006.7 hPa South 12.9 km/h 27.4 km/h 64 % 0.0 mm 504 W/m2
18:10 27.0 °C 19.9 °C 1006.7 hPa West 4.8 km/h 27.4 km/h 65 % 0.0 mm 492 W/m2
18:15 27.2 °C 20.3 °C 1006.7 hPa WSW 8.0 km/h 25.7 km/h 66 % 0.0 mm 471 W/m2
18:20 26.9 °C 20.0 °C 1006.7 hPa SSW 12.9 km/h 25.7 km/h 66 % 0.0 mm 431 W/m2
18:25 26.7 °C 19.8 °C 1006.7 hPa SSW 9.7 km/h 29.0 km/h 66 % 0.0 mm 441 W/m2
18:30 26.9 °C 20.0 °C 1006.7 hPa SSW 11.3 km/h 29.0 km/h 66 % 0.0 mm 469 W/m2
18:35 26.9 °C 20.0 °C 1006.7 hPa SW 17.7 km/h 24.1 km/h 66 % 0.0 mm 429 W/m2
18:40 26.9 °C 20.0 °C 1006.7 hPa South 25.7 km/h 27.4 km/h 66 % 0.0 mm 385 W/m2
18:45 26.8 °C 19.9 °C 1006.7 hPa South 6.4 km/h 27.4 km/h 66 % 0.0 mm 378 W/m2
18:50 26.5 °C 20.1 °C 1006.7 hPa South 11.3 km/h 25.7 km/h 68 % 0.0 mm 381 W/m2
18:55 26.2 °C 20.0 °C 1006.3 hPa SSW 19.3 km/h 24.1 km/h 69 % 0.0 mm 355 W/m2
19:00 26.1 °C 20.2 °C 1006.3 hPa SSW 6.4 km/h 25.7 km/h 70 % 0.0 mm 295 W/m2
19:05 26.3 °C 20.2 °C 1006.3 hPa South 12.9 km/h 25.7 km/h 69 % 0.0 mm 343 W/m2
19:10 26.3 °C 20.2 °C 1006.3 hPa South 12.9 km/h 22.5 km/h 69 % 0.0 mm 366 W/m2
19:15 25.6 °C 20.0 °C 1006.7 hPa SW 12.9 km/h 24.1 km/h 71 % 0.0 mm 274 W/m2
19:20 25.0 °C 20.0 °C 1006.7 hPa SW 11.3 km/h 24.1 km/h 74 % 0.0 mm 192 W/m2
19:25 24.9 °C 20.4 °C 1006.3 hPa SSW 8.0 km/h 20.9 km/h 76 % 0.0 mm 288 W/m2
19:30 24.8 °C 20.3 °C 1006.3 hPa WSW 4.8 km/h 20.9 km/h 76 % 0.0 mm 206 W/m2
19:35 24.4 °C 20.1 °C 1006.3 hPa SSW 8.0 km/h 25.7 km/h 77 % 0.0 mm 151 W/m2
19:40 23.9 °C 20.0 °C 1006.7 hPa WSW 9.7 km/h 25.7 km/h 79 % 0.0 mm 186 W/m2
19:45 23.7 °C 20.1 °C 1006.7 hPa South 14.5 km/h 20.9 km/h 80 % 0.0 mm 181 W/m2
19:50 23.6 °C 20.1 °C 1006.7 hPa SW 4.8 km/h 16.1 km/h 81 % 0.0 mm 100 W/m2
19:55 23.3 °C 20.0 °C 1006.3 hPa South 12.9 km/h 16.1 km/h 82 % 0.0 mm 142 W/m2
20:00 23.1 °C 19.9 °C 1006.7 hPa SW 4.8 km/h 14.5 km/h 82 % 0.0 mm 93 W/m2
20:05 23.0 °C 20.0 °C 1006.3 hPa WSW 3.2 km/h 19.3 km/h 83 % 0.0 mm 91 W/m2
20:10 22.8 °C 20.0 °C 1006.7 hPa SW 8.0 km/h 19.3 km/h 84 % 0.0 mm 76 W/m2
20:20 22.6 °C 19.9 °C 1006.7 hPa WSW 4.8 km/h 14.5 km/h 85 % 0.0 mm 104 W/m2
20:25 22.5 °C 20.0 °C 1006.7 hPa SSW 8.0 km/h 16.1 km/h 86 % 0.0 mm 95 W/m2
20:30 22.5 °C 20.0 °C 1006.7 hPa SSE 9.7 km/h 19.3 km/h 86 % 0.0 mm 127 W/m2
20:35 22.5 °C 20.0 °C 1006.7 hPa South 11.3 km/h 19.3 km/h 86 % 0.0 mm 102 W/m2
20:40 22.4 °C 20.0 °C 1006.7 hPa SSW 3.2 km/h 14.5 km/h 86 % 0.0 mm 77 W/m2
20:45 22.4 °C 20.0 °C 1006.7 hPa SW 9.7 km/h 14.5 km/h 86 % 0.0 mm 60 W/m2
20:50 22.3 °C 19.9 °C 1006.7 hPa SSW 3.2 km/h 14.5 km/h 86 % 0.0 mm 46 W/m2
20:55 22.2 °C 19.8 °C 1006.7 hPa SW 11.3 km/h 17.7 km/h 86 % 0.0 mm 40 W/m2
21:00 22.1 °C 19.8 °C 1006.7 hPa South 9.7 km/h 17.7 km/h 87 % 0.0 mm 40 W/m2
21:05 22.2 °C 19.9 °C 1006.7 hPa South 9.7 km/h 16.1 km/h 87 % 0.0 mm 42 W/m2
21:10 22.2 °C 19.9 °C 1006.7 hPa SSW 4.8 km/h 16.1 km/h 87 % 0.0 mm 42 W/m2
21:15 22.1 °C 19.8 °C 1007.0 hPa SSW 8.0 km/h 14.5 km/h 87 % 0.0 mm 37 W/m2
21:20 22.1 °C 19.8 °C 1006.7 hPa SSW 11.3 km/h 14.5 km/h 87 % 0.0 mm 32 W/m2
21:30 21.9 °C 19.8 °C 1006.7 hPa South 9.7 km/h 27.4 km/h 88 % 0.0 mm 19 W/m2
21:35 21.8 °C 19.8 °C 1006.7 hPa South 12.9 km/h 27.4 km/h 88 % 0.0 mm 14 W/m2
21:40 21.8 °C 19.9 °C 1006.7 hPa South 8.0 km/h 19.3 km/h 89 % 0.0 mm 11 W/m2
21:45 21.7 °C 19.8 °C 1006.7 hPa South 9.7 km/h 17.7 km/h 89 % 0.0 mm 9 W/m2
21:50 21.7 °C 19.8 °C 1006.7 hPa South 4.8 km/h 14.5 km/h 89 % 0.0 mm 5 W/m2
21:55 21.7 °C 19.8 °C 1006.7 hPa SSW 9.7 km/h 14.5 km/h 89 % 0.0 mm 0 W/m2
22:00 21.6 °C 19.7 °C 1006.7 hPa South 3.2 km/h 14.5 km/h 89 % 0.0 mm 0 W/m2
22:05 21.6 °C 19.8 °C 1006.7 hPa South 8.0 km/h 16.1 km/h 90 % 0.0 mm 0 W/m2
22:10 21.5 °C 19.8 °C 1006.7 hPa SSW 4.8 km/h 16.1 km/h 90 % 0.0 mm 0 W/m2
22:15 21.4 °C 19.9 °C 1006.7 hPa SSW 8.0 km/h 16.1 km/h 91 % 0.0 mm 0 W/m2
22:20 21.4 °C 19.9 °C 1007.0 hPa WSW 6.4 km/h 14.5 km/h 91 % 0.0 mm 0 W/m2
22:25 21.4 °C 19.9 °C 1007.0 hPa SW 1.6 km/h 14.5 km/h 91 % 0.0 mm 0 W/m2
22:35 21.1 °C 19.6 °C 1007.0 hPa West 14.5 km/h 16.1 km/h 91 % 0.0 mm 0 W/m2
22:40 20.8 °C 19.3 °C 1007.3 hPa SW 8.0 km/h 16.1 km/h 91 % 0.0 mm 0 W/m2
22:45 20.6 °C 19.2 °C 1007.3 hPa SW 4.8 km/h 22.5 km/h 92 % 0.0 mm 0 W/m2
22:50 20.3 °C 19.1 °C 1007.3 hPa SW 8.0 km/h 22.5 km/h 93 % 0.0 mm 0 W/m2
22:55 20.2 °C 19.1 °C 1007.3 hPa WSW 6.4 km/h 16.1 km/h 93 % 0.0 mm 0 W/m2
23:00 20.2 °C 19.2 °C 1007.7 hPa West 6.4 km/h 16.1 km/h 94 % 0.0 mm 0 W/m2
23:05 20.1 °C 19.1 °C 1007.7 hPa SW 1.6 km/h 16.1 km/h 94 % 0.0 mm 0 W/m2
23:10 20.1 °C 19.1 °C 1007.3 hPa SW 3.2 km/h 16.1 km/h 94 % 0.0 mm 0 W/m2
23:15 20.1 °C 19.1 °C 1007.3 hPa WSW 11.3 km/h 16.1 km/h 94 % 0.0 mm 0 W/m2
23:20 20.1 °C 19.1 °C 1007.3 hPa West 4.8 km/h 16.1 km/h 94 % 0.0 mm 0 W/m2
23:25 20.1 °C 19.2 °C 1007.3 hPa WSW 6.4 km/h 16.1 km/h 95 % 0.0 mm 0 W/m2
23:30 20.1 °C 19.3 °C 1007.3 hPa WSW 11.3 km/h 16.1 km/h 95 % 0.0 mm 0 W/m2
23:35 20.1 °C 19.3 °C 1007.3 hPa WSW 8.0 km/h 17.7 km/h 95 % 0.0 mm 0 W/m2
23:40 20.1 °C 19.1 °C 1007.3 hPa WSW 9.7 km/h 17.7 km/h 94 % 0.0 mm 0 W/m2
23:45 20.1 °C 19.1 °C 1007.3 hPa WSW 6.4 km/h 16.1 km/h 94 % 0.0 mm 0 W/m2
23:50 20.1 °C 19.1 °C 1007.3 hPa WSW 6.4 km/h 17.7 km/h 94 % 0.0 mm 0 W/m2
23:55 20.1 °C 19.1 °C 1007.3 hPa SSW 4.8 km/h 17.7 km/h 94 % 0.0 mm 0 W/m2
Avec l'autorisation de Weather Underground - 1.75 mb